SCP
0 0 0 0 0 0 0 0 0 0 0 0 0 0 -0 0 0 -0 -0 0 0 0 0 0 0 0 0 0 -0 -0 -0 -0 -0 0 0 0 0 0 0 0 0 0 0 1
0 0 0 0 0 0 0 0 0 0 0 0 0 -0 -0 -0 0 -0 -0 -0 0 0 0 0 0 0 0 0 -0 0 -0 -0 -0 -0 0 0 0 0 0 0 0 0 0 1
0 0 0 0 0 0 0 0 0 0 0 0 0 -0 -0 0 0 0 0 -0 -0 0 0 0 0 0 0 -0 -0 0 -0 -0 -0 0 -0 0 0 0 0 0 0 0 0 0
0 0 0 0 0 -0 0 0 0 0 0 0 0 -0 -0 -0 -0 0 -0 0 0 -0 0 0 0 0 0 -0 0 0 -0 -0 -0 -0 -0 -0 0 0 0 0 0 0 0 0
0 0 0 0 0 0 0 0 0 0 0 0 0 -0 -0 -0 -0 -0 0 0 -0 -0 0 0 -0 -0 -0 0 0 0 0 -0 0 0 -0 0 0 0 0 0 0 0 0 0
0 0 0 0 0 0 0 0 0 0 0 0 0 -0 -0 0 0 0 0 -0 -0 -0 -0 -0 -0 -0 -0 -0 0 0 0 0 0 -0 -0 -0 -0 0 0 0 0 0 0 0
0 0 0 0 0 0 0 0 0 0 0 0 -0 0 -0 0 0 0 0 -0 -0 -0 -0 -0 -0 -0 -0 0 0 0 0 0 0 0 0 -0 0 0 0 0 0 0 0 0
0 0 0 0 0 0 0 0 0 0 0 0 0 0 0 0 0 0 0 -0 -0 -0 -0 0 0 0 0 0 -0 0 -0 0 0 0 0 0 0 0 0 0 0 0 0 0
0 0 0 0 0 0 0 0 0 0 0 0 -0 -0 0 0 0 0 -0 -0 -0 -0 -0 0 -0 0 0 0 0 -0 0 0 0 0 0 1 0 0 0 0 0 0 0 0
0 0 0 0 0 0 0 0 0 0 0 0 -0 -0 0 0 0 0 -0 -0 -0 -0 -0 0 0 0 0 0 0 0 0 0 0 0 0 0 0 0 0 0 0 0 0 0
0 0 0 0 0 0 0 0 0 0 0 0 0 0 -0 0 0 0 -0 -0 0 -0 -0 -0 0 0 0 0 0 0 0 0 0 0 0 0 -0 0 0 0 0 0 0 0
0 0 0 0 0 0 0 0 0 0 0 0 0 -0 -0 -0 0 0 0 0 0 -0 -0 -0 0 0 0 0 0 -0 0 0 0 0 0 0 0 0 0 0 0 0 0 0
0 0 0 0 0 0 0 0 0 0 0 0 -0 0 -0 0 0 0 0 0 -0 0 -0 -0 0 0 0 0 0 0 0 -0 0 0 0 0 0 0 0 0 0 0 0 0
0 0 0 0 0 0 0 0 0 0 0 0 -0 -0 0 0 -0 0 0 0 -0 -0 -0 0 0 0 0 0 0 0 0 0 0 0 0 0 0 0 0 0 0 0 0 0
-0 -0 -0 -0 -0 0 0 0 0 0 0 0 -0 -0 0 0 -0 0 0 0 -0 -0 0 0 0 0 0 0 0 0 0 0 0 0 0 0 0 0 0 0 0 0 0 -0
-0 -0 -0 -0 -0 0 0 0 0 0 0 0 -0 -0 0 0 0 0 0 0 -0 -0 -0 0 0 0 0 0 0 0 0 0 0 0 0 0 0 0 0 0 0 0 0 0
-0 -0 -0 -0 -0 0 0 0 0 0 0 0 -0 -0 -0 0 0 -0 0 0 -0 -0 -0 0 0 0 0 0 0 0 0 0 0 0 0 0 0 0 0 -0 0 0 0 0
-0 -0 -0 -0 0 0 0 0 0 0 0 0 -0 -0 -0 0 -0 0 -0 0 -0 0 0 0 0 0 0 0 0 0 0 0 -0 -0 0 0 0 0 0 0 -0 0 0 0
0 -0 -0 0 0 0 0 0 0 0 0 0 0 -0 -0 -0 -0 0 0 0 0 0 -0 0 0 -0 0 0 0 0 0 0 0 0 0 0 0 0 -0 -0 -0 0 0 0
-0 -0 0 0 0 0 0 0 0 0 0 0 0 -0 0 0 -0 -0 -0 -0 -0 -0 -0 -0 0 0 0 0 0 0 0 0 -0 -0 -0 -0 -0 -0 0 0 0 0 0 0
0 0 0 0 0 0 0 0 0 0 0 0 -0 -0 -0 -0 -0 -0 0 0 0 0 0 -0 0 0 0 0 0 0 0 0 0 0 0 -0 -0 0 0 -0 -0 -0 -0 -0
0 0 0 0 0 0 0 0 0 0 0 0 -0 0 -0 -0 -0 0 0 0 0 0 -0 0 0 -0 -0 0 0 0 0 0 0 -0 -0 -0 0 0 -0 -0 -0 -0 -0 -0
0 0 0 0 0 0 0 0 0 0 0 0 -0 -0 -0 -0 -0 0 0 0 0 0 0 0 -0 -0 -0 0 -0 -0 -0 0 -0 -0 -0 -0 -0 -0 -0 -0 -0 -0 0 0
0 0 0 0 0 0 0 0 0 0 0 -0 -0 -0 -0 0 0 0 0 0 0 0 0 0 0 -0 -0 0 0 0 -0 -0 -0 -0 -0 -0 -0 -0 -0 0 0 0 0 0
0 0 0 0 0 0 0 0 0 0 0 -0 -0 -0 0 0 0 0 0 0 0 0 0 0 0 -0 -0 -0 -0 -0 -0 -0 -0 -0 -0 -0 -0 -0 0 0 0 0 0 0
0 0 0 0 0 0 0 0 0 0 0 0 0 0 0 0 0 0 0 0 0 0 0 0 -0 -0 0 0 0 0 0 -0 -0 -0 -0 -0 0 0 0 0 0 0 0 0
0 0 0 -0 0 0 0 0 0 0 0 0 0 0 0 0 0 0 0 0 0 0 0 0 -0 -0 0 0 0 0 -0 -0 -0 -0 0 0 0 0 0 0 0 0 0 0
Wind_Speed_500mb
60 63 64 66 71 80 57 27 13 34 42 23 19 18 25 38 38 50 15 12 10 8 18 12 16 14 2 17 18 5 10 11 29 57 46 54 49 56 61 26 48 29 24 10
58 61 62 63 67 61 50 37 23 17 28 12 19 23 31 32 39 41 16 14 7 4 12 15 22 20 27 8 22 6 11 9 24 42 11 20 37 54 51 45 29 41 23 16
56 58 58 61 61 52 35 29 13 20 17 16 27 32 25 35 44 35 34 26 24 16 21 12 18 23 18 51 19 31 16 10 37 34 46 48 54 43 44 43 29 17 19 35
54 56 55 58 56 42 40 26 12 11 14 21 31 24 27 45 31 22 37 13 30 42 12 22 9 27 25 21 5 11 7 17 26 10 25 44 46 54 56 51 27 30 50 43
52 53 47 50 53 33 21 24 18 23 40 30 25 13 33 36 50 35 19 16 51 37 18 20 38 37 27 10 13 4 15 10 29 15 27 47 44 50 51 42 31 15 38 42
50 50 41 42 44 42 18 22 22 13 30 29 22 26 34 41 41 23 49 49 39 40 37 59 64 57 50 32 11 13 11 13 9 17 42 54 50 46 45 22 18 14 25 35
47 43 37 37 34 28 24 20 22 12 14 24 28 37 41 42 42 31 55 51 37 50 67 63 43 40 34 9 11 13 12 5 9 9 33 16 30 38 35 10 26 17 52 41
44 39 36 34 30 25 24 22 17 10 13 39 31 42 39 50 45 36 40 63 70 53 44 13 14 3 6 13 26 12 31 11 12 11 7 19 24 25 29 6 29 44 56 45
43 37 35 33 28 24 23 22 16 16 14 7 38 45 37 30 27 29 47 56 47 44 7 8 9 9 10 10 19 36 7 11 11 10 8 8 9 32 30 14 23 42 57 48
41 36 32 33 30 24 24 21 18 24 15 28 38 23 19 25 26 11 34 71 24 40 15 10 11 6 16 12 16 14 11 12 9 19 12 10 21 39 26 7 16 57 64 71
38 35 31 31 30 25 26 25 21 21 17 54 21 23 47 50 41 14 53 22 9 10 18 12 10 7 11 9 8 13 13 14 12 9 11 11 49 13 9 4 59 59 58 51
37 33 29 28 29 30 27 18 27 34 31 56 60 35 31 29 35 39 16 12 18 8 6 6 7 6 7 14 8 22 10 13 7 13 8 19 36 20 24 36 54 54 54 56
38 35 29 28 30 32 29 25 22 26 27 45 26 4 28 18 26 21 7 10 10 10 11 6 4 5 8 10 10 9 22 39 8 4 16 24 45 56 57 52 55 54 51 56
38 36 29 28 31 31 25 21 16 17 20 8 16 24 23 23 26 13 30 36 35 32 14 5 3 5 17 8 12 14 13 22 13 9 7 21 46 43 44 56 60 62 60 54
35 36 30 30 29 23 20 19 8 5 11 11 30 39 16 27 25 15 21 16 15 11 7 7 6 8 5 7 9 13 25 10 6 6 18 27 19 33 38 56 60 59 69 59
34 34 31 30 23 17 9 7 4 10 19 11 9 24 16 29 17 12 22 30 23 27 8 10 12 18 3 8 7 28 36 30 7 13 52 58 53 51 50 63 57 56 57 56
33 31 29 20 14 7 7 8 2 15 20 6 12 12 18 32 14 11 9 29 35 26 10 12 13 30 16 9 9 26 16 32 40 45 45 45 39 47 54 57 60 55 51 46
29 27 19 10 3 5 6 12 13 12 8 9 6 11 16 30 23 11 11 11 26 35 14 24 28 14 18 11 9 19 34 42 48 46 46 47 45 45 43 43 45 47 45 44
25 17 9 2 2 5 8 21 10 7 7 9 7 8 11 26 26 15 12 7 6 12 17 15 15 14 12 8 27 29 29 34 35 33 37 39 40 39 39 39 38 40 37 35
13 7 4 9 6 12 13 5 5 6 7 10 6 23 15 28 30 12 11 14 6 5 8 17 9 12 17 18 18 24 25 29 31 34 34 34 38 36 34 33 31 32 32 32
10 6 6 8 12 3 8 9 9 7 5 4 12 20 19 18 13 13 12 6 4 5 8 7 6 5 1 3 11 17 19 24 27 29 31 30 32 33 34 33 31 30 29 29
11 14 17 6 7 11 7 7 5 6 5 5 16 24 23 14 11 6 11 4 8 7 9 7 6 12 25 15 16 19 21 26 30 29 30 29 29 29 30 31 30 29 29 28
5 5 4 8 6 2 11 11 6 2 4 6 18 13 14 8 8 10 4 6 4 5 5 6 8 38 33 30 26 24 24 26 29 30 30 30 29 26 26 29 28 27 27 27
4 7 4 9 10 10 4 6 9 12 12 17 18 17 6 11 5 5 6 5 5 4 4 5 19 45 41 35 30 28 26 26 28 28 27 27 27 27 26 25 26 27 26 24
8 7 7 12 6 4 4 6 6 7 12 19 18 12 9 6 6 4 6 5 3 4 5 10 38 44 38 36 31 28 26 25 24 24 25 25 23 24 25 24 24 26 26 25
8 11 14 11 10 14 4 4 5 4 6 9 7 8 5 5 4 6 2 2 3 3 9 38 43 42 37 35 31 26 23 23 23 23 22 21 21 21 23 24 23 24 24 24
8 13 20 18 8 9 11 13 3 7 10 6 7 7 4 2 5 2 4 4 2 23 33 38 39 38 37 35 31 28 25 24 23 23 22 23 24 23 22 23 23 23 21 21
Wind_Direction_500mb
353 352 352 357 358 353 4 340 337 338 1 35 2 5 333 306 327 339 342 284 276 281 309 290 293 357 234 313 330 246 230 260 196 190 179 221 194 202 208 209 227 249 168 81
352 354 352 359 3 2 351 334 314 353 8 23 1 347 308 346 341 337 345 300 274 256 294 303 299 314 336 258 334 202 221 220 196 195 187 266 244 198 207 221 237 220 173 132
351 352 354 358 6 10 4 332 344 348 320 4 359 332 336 336 345 327 333 297 316 306 300 283 284 299 320 320 293 246 243 260 202 187 191 182 214 199 200 206 238 214 188 132
348 350 354 359 9 19 14 12 15 9 319 340 311 352 317 340 340 326 314 285 327 325 300 302 258 314 311 306 342 357 128 232 186 92 222 195 198 201 194 216 213 217 139 147
347 348 353 0 6 28 6 0 354 330 293 295 314 354 348 329 331 330 307 296 319 316 303 292 299 304 306 283 317 292 204 245 145 200 256 233 197 211 186 191 209 75 161 134
346 347 355 1 6 25 9 351 345 307 300 337 341 353 330 330 323 323 322 327 317 320 319 309 295 285 275 260 281 313 309 186 112 195 211 182 196 196 192 121 224 147 169 133
343 347 354 357 2 14 353 337 341 324 314 330 335 322 347 323 325 327 318 327 334 314 317 309 282 255 261 265 287 253 319 143 155 112 105 169 196 141 212 140 25 124 118 130
342 345 346 348 354 353 353 330 337 321 295 322 312 343 330 316 338 335 322 334 328 324 320 323 326 72 349 306 294 237 211 203 124 139 125 124 61 133 166 44 95 120 121 126
341 342 343 345 349 345 351 329 294 322 297 325 328 324 324 329 333 322 326 337 340 344 311 313 345 2 322 320 327 23 39 156 105 114 126 102 345 350 9 120 100 126 129 133
337 339 341 343 345 346 344 319 317 305 271 286 314 309 312 304 319 282 307 342 331 360 339 351 6 337 351 353 5 346 1 356 162 112 81 98 346 322 292 80 116 139 139 140
332 336 338 340 341 341 338 320 309 292 281 297 277 299 299 309 313 315 309 326 27 326 3 0 352 339 358 344 30 0 5 323 28 19 99 76 344 358 25 257 131 131 133 141
327 329 329 330 333 332 332 317 314 309 278 282 296 292 288 277 307 310 312 283 299 323 325 359 311 334 337 338 19 10 37 2 30 32 63 345 342 1 93 113 118 133 127 122
320 321 323 326 328 324 319 307 310 319 297 320 301 197 346 316 312 295 247 275 288 289 286 296 303 322 342 0 27 357 1 13 75 178 18 18 25 47 74 88 97 111 117 122
314 315 318 324 324 319 315 301 285 312 305 288 303 328 334 340 350 311 288 306 330 310 297 246 305 347 12 38 47 41 357 308 45 77 101 61 33 51 71 80 91 100 105 112
308 313 318 322 319 322 318 303 297 304 324 300 300 310 354 347 350 357 345 303 338 10 11 30 23 3 1 92 57 27 347 330 333 69 48 93 59 78 89 95 97 102 113 106
312 315 319 320 315 326 335 266 192 277 323 309 309 321 306 350 343 6 18 34 50 43 52 40 31 1 347 58 61 2 21 65 77 91 98 97 98 101 99 96 99 101 102 105
311 316 317 313 307 297 259 333 235 313 305 276 288 273 13 353 340 9 44 36 42 37 42 48 51 46 69 52 54 353 48 66 86 92 93 82 91 97 94 96 99 98 100 104
313 318 318 308 306 53 264 281 308 310 267 257 271 305 328 12 340 350 21 82 56 26 34 49 35 41 74 65 47 55 68 78 78 82 85 91 99 99 99 100 104 102 99 98
320 318 318 231 152 221 235 283 285 267 245 291 302 315 340 323 338 314 317 101 87 97 51 42 40 28 48 84 67 71 88 93 105 100 105 100 100 102 103 103 102 100 99 99
335 11 283 216 191 269 285 313 224 226 228 247 276 297 317 347 333 318 351 326 127 125 98 105 66 44 45 60 69 78 88 99 105 110 109 110 109 107 105 103 106 107 110 109
0 288 272 296 278 292 228 230 205 240 252 256 291 334 306 327 334 330 340 303 334 107 152 118 105 112 166 49 38 71 74 83 88 96 102 107 109 110 109 107 107 108 111 114
300 278 288 266 228 227 217 235 213 206 232 353 322 316 342 314 322 279 302 300 4 70 111 111 90 144 169 169 133 111 99 97 97 99 103 104 105 108 110 110 109 110 111 113
356 300 270 221 226 315 222 195 215 233 228 331 324 318 312 284 252 292 293 2 11 69 45 77 123 149 157 148 138 122 110 104 103 105 107 109 108 109 111 111 112 114 113 112
246 231 278 231 195 235 239 358 11 19 328 309 311 308 288 304 282 295 304 352 66 95 122 96 148 156 155 154 142 130 118 112 109 108 109 109 109 110 112 114 117 119 120 126
251 227 244 218 283 334 332 330 348 327 283 301 302 279 260 276 297 273 0 299 167 29 104 138 158 151 154 152 150 135 127 118 110 110 109 109 112 114 113 116 120 122 122 125
246 240 246 220 243 199 113 281 279 291 292 282 265 268 259 240 266 257 206 26 2 134 114 152 157 151 152 154 149 141 131 122 117 114 112 114 113 116 115 118 122 128 128 126
236 243 237 271 283 166 186 260 255 280 280 249 233 251 227 328 270 223 48 117 99 119 140 149 156 156 155 150 146 145 135 127 123 119 119 119 119 120 121 124 131 132 129 129
Wind_Speed_850mb
60 63 64 66 71 80 57 27 13 34 42 23 19 18 25 38 38 50 15 12 10 8 18 12 16 14 2 17 18 5 10 11 29 57 46 54 49 56 61 26 48 29 24 10
58 61 62 63 67 61 50 37 23 17 28 12 19 23 31 32 39 41 16 14 7 4 12 15 22 20 27 8 22 6 11 9 24 42 11 20 37 54 51 45 29 41 23 16
56 58 58 61 61 52 35 29 13 20 17 16 27 32 25 35 44 35 34 26 24 16 21 12 18 23 18 51 19 31 16 10 37 34 46 48 54 43 44 43 29 17 19 35
54 56 55 58 56 42 40 26 12 11 14 21 31 24 27 45 31 22 37 13 30 42 12 22 9 27 25 21 5 11 7 17 26 10 25 44 46 54 56 51 27 30 50 43
52 53 47 50 53 33 21 24 18 23 40 30 25 13 33 36 50 35 19 16 51 37 18 20 38 37 27 10 13 4 15 10 29 15 27 47 44 50 51 42 31 15 38 42
50 50 41 42 44 42 18 22 22 13 30 29 22 26 34 41 41 23 49 49 39 40 37 59 64 57 50 32 11 13 11 13 9 17 42 54 50 46 45 22 18 14 25 35
47 43 37 37 34 28 24 20 22 12 14 24 28 37 41 42 42 31 55 51 37 50 67 63 43 40 34 9 11 13 12 5 9 9 33 16 30 38 35 10 26 17 52 41
44 39 36 34 30 25 24 22 17 10 13 39 31 42 39 50 45 36 40 63 70 53 44 13 14 3 6 13 26 12 31 11 12 11 7 19 24 25 29 6 29 44 56 45
43 37 35 33 28 24 23 22 16 16 14 7 38 45 37 30 27 29 47 56 47 44 7 8 9 9 10 10 19 36 7 11 11 10 8 8 9 32 30 14 23 42 57 48
41 36 32 33 30 24 24 21 18 24 15 28 38 23 19 25 26 11 34 71 24 40 15 10 11 6 16 12 16 14 11 12 9 19 12 10 21 39 26 7 16 57 64 71
38 35 31 31 30 25 26 25 21 21 17 54 21 23 47 50 41 14 53 22 9 10 18 12 10 7 11 9 8 13 13 14 12 9 11 11 49 13 9 4 59 59 58 51
37 33 29 28 29 30 27 18 27 34 31 56 60 35 31 29 35 39 16 12 18 8 6 6 7 6 7 14 8 22 10 13 7 13 8 19 36 20 24 36 54 54 54 56
38 35 29 28 30 32 29 25 22 26 27 45 26 4 28 18 26 21 7 10 10 10 11 6 4 5 8 10 10 9 22 39 8 4 16 24 45 56 57 52 55 54 51 56
38 36 29 28 31 31 25 21 16 17 20 8 16 24 23 23 26 13 30 36 35 32 14 5 3 5 17 8 12 14 13 22 13 9 7 21 46 43 44 56 60 62 60 54
35 36 30 30 29 23 20 19 8 5 11 11 30 39 16 27 25 15 21 16 15 11 7 7 6 8 5 7 9 13 25 10 6 6 18 27 19 33 38 56 60 59 69 59
34 34 31 30 23 17 9 7 4 10 19 11 9 24 16 29 17 12 22 30 23 27 8 10 12 18 3 8 7 28 36 30 7 13 52 58 53 51 50 63 57 56 57 56
33 31 29 20 14 7 7 8 2 15 20 6 12 12 18 32 14 11 9 29 35 26 10 12 13 30 16 9 9 26 16 32 40 45 45 45 39 47 54 57 60 55 51 46
29 27 19 10 3 5 6 12 13 12 8 9 6 11 16 30 23 11 11 11 26 35 14 24 28 14 18 11 9 19 34 42 48 46 46 47 45 45 43 43 45 47 45 44
25 17 9 2 2 5 8 21 10 7 7 9 7 8 11 26 26 15 12 7 6 12 17 15 15 14 12 8 27 29 29 34 35 33 37 39 40 39 39 39 38 40 37 35
13 7 4 9 6 12 13 5 5 6 7 10 6 23 15 28 30 12 11 14 6 5 8 17 9 12 17 18 18 24 25 29 31 34 34 34 38 36 34 33 31 32 32 32
10 6 6 8 12 3 8 9 9 7 5 4 12 20 19 18 13 13 12 6 4 5 8 7 6 5 1 3 11 17 19 24 27 29 31 30 32 33 34 33 31 30 29 29
11 14 17 6 7 11 7 7 5 6 5 5 16 24 23 14 11 6 11 4 8 7 9 7 6 12 25 15 16 19 21 26 30 29 30 29 29 29 30 31 30 29 29 28
5 5 4 8 6 2 11 11 6 2 4 6 18 13 14 8 8 10 4 6 4 5 5 6 8 38 33 30 26 24 24 26 29 30 30 30 29 26 26 29 28 27 27 27
4 7 4 9 10 10 4 6 9 12 12 17 18 17 6 11 5 5 6 5 5 4 4 5 19 45 41 35 30 28 26 26 28 28 27 27 27 27 26 25 26 27 26 24
8 7 7 12 6 4 4 6 6 7 12 19 18 12 9 6 6 4 6 5 3 4 5 10 38 44 38 36 31 28 26 25 24 24 25 25 23 24 25 24 24 26 26 25
8 11 14 11 10 14 4 4 5 4 6 9 7 8 5 5 4 6 2 2 3 3 9 38 43 42 37 35 31 26 23 23 23 23 22 21 21 21 23 24 23 24 24 24
8 13 20 18 8 9 11 13 3 7 10 6 7 7 4 2 5 2 4 4 2 23 33 38 39 38 37 35 31 28 25 24 23 23 22 23 24 23 22 23 23 23 21 21
Wind_Direction_850mb
353 352 352 357 358 353 4 340 337 338 1 35 2 5 333 306 327 339 342 284 276 281 309 290 293 357 234 313 330 246 230 260 196 190 179 221 194 202 208 209 227 249 168 81
352 354 352 359 3 2 351 334 314 353 8 23 1 347 308 346 341 337 345 300 274 256 294 303 299 314 336 258 334 202 221 220 196 195 187 266 244 198 207 221 237 220 173 132
351 352 354 358 6 10 4 332 344 348 320 4 359 332 336 336 345 327 333 297 316 306 300 283 284 299 320 320 293 246 243 260 202 187 191 182 214 199 200 206 238 214 188 132
348 350 354 359 9 19 14 12 15 9 319 340 311 352 317 340 340 326 314 285 327 325 300 302 258 314 311 306 342 357 128 232 186 92 222 195 198 201 194 216 213 217 139 147
347 348 353 0 6 28 6 0 354 330 293 295 314 354 348 329 331 330 307 296 319 316 303 292 299 304 306 283 317 292 204 245 145 200 256 233 197 211 186 191 209 75 161 134
346 347 355 1 6 25 9 351 345 307 300 337 341 353 330 330 323 323 322 327 317 320 319 309 295 285 275 260 281 313 309 186 112 195 211 182 196 196 192 121 224 147 169 133
343 347 354 357 2 14 353 337 341 324 314 330 335 322 347 323 325 327 318 327 334 314 317 309 282 255 261 265 287 253 319 143 155 112 105 169 196 141 212 140 25 124 118 130
342 345 346 348 354 353 353 330 337 321 295 322 312 343 330 316 338 335 322 334 328 324 320 323 326 72 349 306 294 237 211 203 124 139 125 124 61 133 166 44 95 120 121 126
341 342 343 345 349 345 351 329 294 322 297 325 328 324 324 329 333 322 326 337 340 344 311 313 345 2 322 320 327 23 39 156 105 114 126 102 345 350 9 120 100 126 129 133
337 339 341 343 345 346 344 319 317 305 271 286 314 309 312 304 319 282 307 342 331 360 339 351 6 337 351 353 5 346 1 356 162 112 81 98 346 322 292 80 116 139 139 140
332 336 338 340 341 341 338 320 309 292 281 297 277 299 299 309 313 315 309 326 27 326 3 0 352 339 358 344 30 0 5 323 28 19 99 76 344 358 25 257 131 131 133 141
327 329 329 330 333 332 332 317 314 309 278 282 296 292 288 277 307 310 312 283 299 323 325 359 311 334 337 338 19 10 37 2 30 32 63 345 342 1 93 113 118 133 127 122
320 321 323 326 328 324 319 307 310 319 297 320 301 197 346 316 312 295 247 275 288 289 286 296 303 322 342 0 27 357 1 13 75 178 18 18 25 47 74 88 97 111 117 122
314 315 318 324 324 319 315 301 285 312 305 288 303 328 334 340 350 311 288 306 330 310 297 246 305 347 12 38 47 41 357 308 45 77 101 61 33 51 71 80 91 100 105 112
308 313 318 322 319 322 318 303 297 304 324 300 300 310 354 347 350 357 345 303 338 10 11 30 23 3 1 92 57 27 347 330 333 69 48 93 59 78 89 95 97 102 113 106
312 315 319 320 315 326 335 266 192 277 323 309 309 321 306 350 343 6 18 34 50 43 52 40 31 1 347 58 61 2 21 65 77 91 98 97 98 101 99 96 99 101 102 105
311 316 317 313 307 297 259 333 235 313 305 276 288 273 13 353 340 9 44 36 42 37 42 48 51 46 69 52 54 353 48 66 86 92 93 82 91 97 94 96 99 98 100 104
313 318 318 308 306 53 264 281 308 310 267 257 271 305 328 12 340 350 21 82 56 26 34 49 35 41 74 65 47 55 68 78 78 82 85 91 99 99 99 100 104 102 99 98
320 318 318 231 152 221 235 283 285 267 245 291 302 315 340 323 338 314 317 101 87 97 51 42 40 28 48 84 67 71 88 93 105 100 105 100 100 102 103 103 102 100 99 99
335 11 283 216 191 269 285 313 224 226 228 247 276 297 317 347 333 318 351 326 127 125 98 105 66 44 45 60 69 78 88 99 105 110 109 110 109 107 105 103 106 107 110 109
0 288 272 296 278 292 228 230 205 240 252 256 291 334 306 327 334 330 340 303 334 107 152 118 105 112 166 49 38 71 74 83 88 96 102 107 109 110 109 107 107 108 111 114
300 278 288 266 228 227 217 235 213 206 232 353 322 316 342 314 322 279 302 300 4 70 111 111 90 144 169 169 133 111 99 97 97 99 103 104 105 108 110 110 109 110 111 113
356 300 270 221 226 315 222 195 215 233 228 331 324 318 312 284 252 292 293 2 11 69 45 77 123 149 157 148 138 122 110 104 103 105 107 109 108 109 111 111 112 114 113 112
246 231 278 231 195 235 239 358 11 19 328 309 311 308 288 304 282 295 304 352 66 95 122 96 148 156 155 154 142 130 118 112 109 108 109 109 109 110 112 114 117 119 120 126
251 227 244 218 283 334 332 330 348 327 283 301 302 279 260 276 297 273 0 299 167 29 104 138 158 151 154 152 150 135 127 118 110 110 109 109 112 114 113 116 120 122 122 125
246 240 246 220 243 199 113 281 279 291 292 282 265 268 259 240 266 257 206 26 2 134 114 152 157 151 152 154 149 141 131 122 117 114 112 114 113 116 115 118 122 128 128 126
236 243 237 271 283 166 186 260 255 280 280 249 233 251 227 328 270 223 48 117 99 119 140 149 156 156 155 150 146 145 135 127 123 119 119 119 119 120 121 124 131 132 129 129